ATLAS 5 CENTAUR DEB, 46485

Orbit data source: Space-Track

ATLAS 5 CENTAUR DEB, 46485 is space debris in HEO originally from a launch on Wed, 17 Oct 2018 UTC launched from the Air Force Eastern Test Range (AFETR). Debris objects in space refer to the collection of defunct objects orbiting the Earth. Examples of debris include non-operational satellites, rocket bodies, and fragments generated from explosions, collisions, or faulty payload assembly.

Loading next visibility...
Identifier
46485, 2018-079BY
Orbit
HEO
Country
Flag of USUS
Related business
Flag of USUnited Launch Alliance/Lockheed Martin (US)
Manufacturer
ULA Decatur
Mission
Spacecraft
Bus & Motor
Unknown
Mass
Unknown
Launch date (UTC)
2018-10-17 (8 years ago)
Launch vehicle
Unknown
Launch site
Air Force Eastern Test Range (AFETR)
Object type
Payload
Rocket body
Debris
Shape & HBR
Unknown shape, 1.1 m
Radar Cross Section
RCS unknown

Expand to show TLE details & history
Last TLE update: 3 days ago

TLE from 3 days ago
0 ATLAS 5 CENTAUR DEB
1 46485U 18079BY  26252.98739699 -.00000121  00000-0  00000+0 0  9993
2 46485  13.3896 335.7388 4410820  81.8131 324.3067  2.01587025 35561
Epoch: 2026-09-09T23:41Z
TLE epoch observation values (Epoch: 2026-09-09T23:41:51.099Z)
Latitude
0.00001°
Longitude
-8.72494°
Altitude
13,689.23 km
Speed
4.967 km/s
True Right ascension
22h 23m 04s
True Declination
0° 00' 00"
Sunlit
Object was in full shadow at epoch
Visualization orbit readout
Latitude
Unknown
Longitude
Unknown
Altitude
Unknown
Speed
Unknown
Apparent Right ascension
Unknown
Apparent Declination
Unknown
Sunlit
N/A
Visualization observer readout
Local Sidereal Time
17:12:05
Azimuth
Unknown
Elevation
Unknown
Doppler factor
Unknown
Orbital elements
Apogee altitude
31,770.92 km
Perigee altitude
8,417.825 km
Semi-major axis
26,472.51 km
Eccentricity
0.44108
Inclination
13.3896°
RAAN
335.7388°
Arg. of periapsis
81.8131°
True anomaly
278.00772°
Mean anomaly
324.3067°
Eccentric anomaly
303.14711°
Mean motion
0.50391 °/min
Orbital period
714.42 mins
BSTAR
0
Loading maneuver chart data...
Computing Atmospheric mass density...

Documentation

Showing up to 5 results
|